Terminal Aerodrome Forecast
Issued by NWS

Home | Current Version | Previous Version | Text Only | Print | Product List | Glossary On
Versions: 1 2 3 4 5 6 7 8 9 10 11 12 13 14 15 16 17 18 19
907
FTUS43 KMPX 240450 AAB
TAFRNH
TAF AMD
KRNH 240450Z 2405/2424 00000KT 1/2SM FZFG VV003
     FM241500 10006KT P6SM SCT008 BKN015 OVC100
     FM242300 09008KT 1 1/2SM -SN OVC015=

USA.gov is the U.S. government's official web portal to all federal, state and local government web resources and services.